Retour au catalogue

NOAA 16 DEB

ActifSSO
NORAD 41216·DEBRIS·🇺🇸 United States

Lancé Sep 21, 2000 depuis Vandenberg Space Force Base

Loading…

Prochains Passages (prochaines 24 heures)

TLE

FraisSource: Space-Track

Époque: Sep 13, 2026, 19:33 UTC

1 41216U 00055DV  26256.81464634  .00001364  00000-0  90903-3 0  9999
2 41216  98.9365 206.5238 0094966 304.9249  54.3022 14.00704158546794

Suivez NOAA 16 DEB en temps réel avec AllMySat

Download on the App Store